Zurück zum Katalog

COSMOS 839 DEB

AktivUNKNOWN
NORAD 10436·DEBRIS·🇷🇺 Russia

Gestartet Jul 8, 1976 von Plesetsk Cosmodrome

Loading…

Nächste Überflüge (nächste 24 Stunden)

TLE

AktuellSource: Space-Track

Epoche: Sep 14, 2026, 13:10 UTC

1 10436U 76067M   26257.54927656 -.00000009  00000-0  15501-3 0  9991
2 10436  66.0254  93.2570 0681454  86.3813 310.2414 12.38195216265503

Verfolge COSMOS 839 DEB in Echtzeit mit AllMySat

Download on the App Store